Stations météo

réclame
Mon MeteoGroup
Tholey, Allemagne (10706): Température de l'air & dewpoint: 13.06.2019 12:00:00 - 19.06.2019 12:00:00 (CEST)Tholey, Allemagne (10706): Température de l'air 5cm & Température de l'air -5cm: 13.06.2019 12:00:00 - 19.06.2019 12:00:00 (CEST)Tholey, Allemagne (10706): Température de l'air -20cm & Température de l'air -100cm: 13.06.2019 12:00:00 - 19.06.2019 12:00:00 (CEST)Tholey, Allemagne (10706): Vitesse du vent & gusts: 13.06.2019 12:00:00 - 19.06.2019 12:00:00 (CEST)Tholey, Allemagne (10706): Direction du vent: 13.06.2019 12:00:00 - 19.06.2019 12:00:00 (CEST)Tholey, Allemagne (10706): reduced air pressure: 13.06.2019 12:00:00 - 19.06.2019 12:00:00 (CEST)Tholey, Allemagne (10706): visibility: 13.06.2019 12:00:00 - 19.06.2019 12:00:00 (CEST)Tholey, Allemagne (10706): Ensoleillement: 13.06.2019 12:00:00 - 19.06.2019 12:00:00 (CEST)Tholey, Allemagne (10706): Quantités de précipitations: 13.06.2019 12:00:00 - 19.06.2019 12:00:00 (CEST)
Date & Time tt [°C] td [°C] tt 5cm [°C] tt -5cm [°C] tt -20cm [°C] tt -100cm [°C] ff [km/h] ff [knt] fx [km/h] fx [knt] dd ppp [hPa] vv [km] sd [min] rr [mm]
19.06.2019 12:00:00 - - - - - - - - - - - - - - -
19.06.2019 11:00:00 22,6 12,8 25,7 28,3 20,8 15,1 6 4 31 17 SW 1009,0 70 44 0,0
19.06.2019 10:00:00 22,4 12,3 26,0 26,0 20,6 15,1 20 11 36 20 WSW 1009,4 20 60 0,0
19.06.2019 09:00:00 21,6 12,5 24,2 23,3 20,5 15,1 14 8 27 15 SW 1009,8 30 60 0,0
19.06.2019 08:00:00 20,6 13,9 21,5 20,3 20,7 15,1 5 3 9 5 E 1009,6 23 60 0,0
19.06.2019 07:00:00 19,6 13,9 18,0 18,2 21,0 15,1 7 4 10 5 NE 1009,9 18 44 0,0
19.06.2019 06:00:00 19,1 13,1 14,9 17,9 21,4 15,1 8 5 9 5 ENE 1010,3 52 0 0,0
19.06.2019 05:00:00 20,1 12,5 15,1 18,6 21,7 15,1 7 4 10 5 NE 1010,0 70 0 0,0
19.06.2019 04:00:00 19,9 12,6 16,5 19,5 22,1 15,1 9 5 11 6 ENE 1010,3 70 0 0,0
19.06.2019 03:00:00 19,8 13,3 17,0 19,9 22,5 15,0 10 5 11 6 NE 1010,7 70 0 0,0
19.06.2019 02:00:00 20,4 13,3 17,1 20,6 22,8 15,0 8 5 9 5 ENE 1011,0 62 0 0,0
19.06.2019 01:00:00 21,2 12,7 17,6 21,2 23,3 15,0 6 3 7 4 E 1011,3 70 0 0,0
19.06.2019 00:00:00 22,1 12,2 17,0 22,0 23,7 15,0 0 0 5 3 N 1011,6 69 0 0,0
18.06.2019 23:00:00 22,4 12,8 17,8 23,5 24,0 15,0 3 2 9 5 SSW 1011,7 70 0 0,0
18.06.2019 22:00:00 23,7 12,0 20,0 25,2 24,3 15,0 5 3 12 7 W 1011,6 70 4 0,0
18.06.2019 21:00:00 24,3 12,0 22,8 27,2 24,4 15,0 5 3 11 6 SW 1011,3 70 24 0,0
18.06.2019 20:00:00 25,5 11,0 24,6 28,8 24,3 15,0 4 2 13 7 W 1011,4 70 45 0,0
18.06.2019 19:00:00 25,8 11,9 28,0 31,1 24,1 15,0 9 5 22 12 SW 1011,4 70 60 0,0
18.06.2019 18:00:00 26,7 13,2 30,9 33,0 23,8 15,0 10 5 21 12 WSW 1011,5 30 57 0,0
18.06.2019 17:00:00 25,6 13,3 28,0 32,4 23,4 15,0 14 8 22 12 SW 1012,2 61 20 0,0
18.06.2019 16:00:00 25,9 14,0 29,4 34,7 22,8 14,9 10 5 24 13 SW 1012,4 58 42 0,0
18.06.2019 15:00:00 26,1 13,3 31,2 35,7 22,1 14,9 10 6 24 13 S 1012,7 52 51 0,0
18.06.2019 14:00:00 26,5 14,9 33,9 34,4 21,4 14,9 8 5 16 9 SE 1013,0 64 47 0,0
18.06.2019 13:00:00 25,0 13,5 29,4 32,5 20,7 14,9 5 3 21 11 S 1013,5 65 52 0,0
18.06.2019 12:00:00 24,9 15,8 30,2 32,6 20,0 14,9 9 5 17 9 SE 1013,7 26 59 0,0
18.06.2019 11:00:00 23,1 14,5 29,0 29,6 19,4 14,9 7 4 16 9 ESE 1014,2 27 60 0,0
18.06.2019 10:00:00 21,5 14,0 25,8 25,7 19,1 14,9 8 4 15 8 E 1014,7 38 60 0,0
18.06.2019 09:00:00 20,4 14,0 23,1 22,0 19,1 14,9 9 5 16 9 E 1015,1 37 59 0,0
18.06.2019 08:00:00 18,8 12,9 20,0 19,1 19,2 14,9 10 5 16 9 NE 1015,3 46 55 0,0
18.06.2019 07:00:00 18,4 12,5 17,7 16,9 19,4 14,9 11 6 18 10 NE 1015,2 17 41 0,0
18.06.2019 06:00:00 17,8 12,1 15,4 16,5 19,8 14,9 12 7 19 10 NE 1015,2 47 2 0,0
18.06.2019 05:00:00 17,1 11,7 14,6 16,7 20,1 14,9 13 7 17 9 NE 1015,5 70 0 0,0
18.06.2019 04:00:00 17,6 11,7 15,2 17,1 20,5 14,9 12 6 17 9 NE 1015,7 65 0 0,0
18.06.2019 03:00:00 17,9 11,6 15,2 17,5 20,9 14,9 11 6 17 9 NE 1015,8 69 0 0,0
18.06.2019 02:00:00 18,6 11,2 15,7 18,2 21,3 14,8 11 6 16 9 NE 1016,3 70 0 0,0
18.06.2019 01:00:00 18,7 11,6 15,7 18,9 21,7 14,8 12 7 17 9 NE 1016,6 64 0 0,0
18.06.2019 00:00:00 18,6 11,4 15,5 19,8 22,2 14,8 11 6 16 9 ENE 1016,8 70 0 0,0
17.06.2019 23:00:00 19,4 11,2 16,2 21,0 22,5 14,8 10 5 20 11 ENE 1016,8 70 0 0,0
17.06.2019 22:00:00 20,1 11,5 17,7 22,7 22,8 14,8 15 8 19 10 NE 1016,5 70 5 0,0
17.06.2019 21:00:00 21,1 11,8 19,4 24,9 22,9 14,8 11 6 14 8 NE 1016,3 70 60 0,0
17.06.2019 20:00:00 22,4 11,7 25,4 27,1 22,9 14,8 10 5 16 9 ENE 1016,3 70 47 0,0
17.06.2019 19:00:00 22,5 11,5 24,6 29,9 22,6 14,8 13 7 21 12 E 1016,4 60 45 0,0
17.06.2019 18:00:00 22,7 11,3 25,7 32,3 22,2 14,8 12 7 29 15 ESE 1016,8 65 47 0,0
17.06.2019 17:00:00 22,5 11,8 26,7 33,2 21,6 14,8 9 5 26 14 ENE 1017,4 70 37 0,0
17.06.2019 16:00:00 22,6 10,4 28,0 33,6 20,9 14,8 14 8 27 15 E 1017,7 37 42 0,0
17.06.2019 15:00:00 21,7 10,7 25,5 34,5 20,0 14,8 14 8 25 14 E 1018,3 47 51 0,0
17.06.2019 14:00:00 22,9 11,0 32,0 32,9 19,2 14,8 9 5 24 13 E 1018,6 26 52 0,0
17.06.2019 13:00:00 22,3 12,0 29,9 30,7 18,5 14,8 14 7 27 14 ENE 1019,0 55 53 0,0
17.06.2019 12:00:00 21,5 12,0 27,7 28,7 17,9 14,8 15 8 26 14 E 1019,4 34 51 0,0
17.06.2019 11:00:00 19,9 11,0 24,2 26,1 17,4 14,8 18 10 27 15 E 1020,0 43 59 0,0
17.06.2019 10:00:00 19,7 11,5 23,6 22,9 17,1 14,8 15 8 21 12 E 1020,2 25 60 0,0
17.06.2019 09:00:00 18,7 11,6 21,0 19,3 17,0 14,8 9 5 16 9 ENE 1020,5 30 60 0,0
17.06.2019 08:00:00 16,7 10,6 17,6 15,9 17,1 14,7 10 5 15 8 ENE 1021,1 39 60 0,0
17.06.2019 07:00:00 15,0 10,1 13,7 13,6 17,4 14,7 11 6 15 8 NE 1021,2 14 60 0,0
17.06.2019 06:00:00 13,6 9,5 10,6 12,9 17,7 14,7 10 5 15 8 NE 1021,6 23 12 0,0
17.06.2019 05:00:00 13,6 9,8 10,4 13,2 18,1 14,7 12 7 15 8 NE 1021,8 70 0 0,0
17.06.2019 04:00:00 13,5 10,0 10,5 13,6 18,4 14,7 12 6 15 8 NE 1022,0 70 0 0,0
17.06.2019 03:00:00 13,2 10,2 9,8 14,2 18,8 14,7 8 4 12 6 ENE 1022,0 64 0 0,0
17.06.2019 02:00:00 15,6 10,4 10,3 14,8 19,2 14,7 6 4 9 5 NE 1021,6 70 0 0,0
17.06.2019 01:00:00 16,5 10,2 11,3 15,6 19,7 14,7 6 4 9 5 NE 1021,6 70 0 0,0
17.06.2019 00:00:00 16,3 10,0 11,2 16,5 20,1 14,7 4 2 5 3 E 1021,8 70 0 0,0
16.06.2019 23:00:00 17,1 9,8 11,7 17,8 20,4 14,7 3 2 5 3 WNW 1021,7 70 0 0,0
16.06.2019 22:00:00 17,7 10,1 12,2 19,6 20,6 14,7 4 2 5 3 W 1021,4 70 10 0,0
16.06.2019 21:00:00 18,9 10,2 16,2 21,8 20,7 14,7 4 2 10 5 W 1021,1 70 60 0,0
16.06.2019 20:00:00 19,5 9,8 21,4 23,8 20,6 14,7 6 4 14 8 WSW 1021,0 70 60 0,0
16.06.2019 19:00:00 19,6 10,4 22,3 25,2 20,3 14,7 8 4 19 11 WNW 1021,0 70 44 0,0
16.06.2019 18:00:00 20,5 10,4 25,3 26,8 20,0 14,7 9 5 21 11 WSW 1020,8 64 28 0,0
16.06.2019 17:00:00 19,3 10,9 21,1 26,7 19,6 14,7 9 5 22 12 WNW 1021,2 70 23 0,0
16.06.2019 16:00:00 19,7 9,5 25,1 27,3 19,3 14,7 12 6 21 11 W 1021,3 50 28 0,0
16.06.2019 15:00:00 18,6 10,5 21,3 24,6 18,9 14,7 15 8 27 15 WSW 1021,5 70 7 0,0
16.06.2019 14:00:00 19,0 9,3 24,5 25,5 18,6 14,7 15 8 29 15 SW 1021,4 54 12 0,0
16.06.2019 13:00:00 19,0 9,3 24,8 24,6 18,2 14,7 18 10 26 14 WSW 1021,5 70 14 0,0
16.06.2019 12:00:00 17,4 9,8 18,9 25,4 17,8 14,7 14 8 26 14 WSW 1021,6 70 38 0,0
16.06.2019 11:00:00 16,8 10,3 19,0 23,8 17,4 14,7 19 10 26 14 WSW 1021,4 50 50 0,0
16.06.2019 10:00:00 16,4 11,2 20,1 21,9 17,2 14,7 9 5 18 10 SW 1021,2 31 59 0,0
16.06.2019 09:00:00 15,2 12,1 17,6 18,4 17,2 14,7 13 7 19 11 SW 1021,1 16 60 0,0
16.06.2019 08:00:00 13,9 12,6 14,6 15,6 17,4 14,7 6 3 9 5 W 1021,0 12 10 0,0
16.06.2019 07:00:00 13,2 12,8 13,0 14,8 17,6 14,7 5 3 8 4 W 1020,8 9 0 0,0
16.06.2019 06:00:00 13,3 12,7 12,6 15,0 17,8 14,7 6 3 10 6 W 1020,6 13 0 0,1
16.06.2019 05:00:00 13,5 13,0 12,9 15,2 18,1 14,6 8 5 11 6 W 1020,2 10 0 0,1
16.06.2019 04:00:00 13,6 12,8 13,0 15,5 18,3 14,6 9 5 14 8 W 1020,0 14 0 0,1
16.06.2019 03:00:00 14,1 12,8 13,3 16,0 18,6 14,6 11 6 16 8 W 1019,8 23 0 0,0
16.06.2019 02:00:00 14,7 12,5 13,5 16,6 18,9 14,6 8 5 13 7 WSW 1019,6 38 0 0,2
16.06.2019 01:00:00 16,2 11,5 15,3 17,2 19,2 14,6 10 5 26 14 W 1019,0 70 0 0,0
16.06.2019 00:00:00 16,9 11,2 16,1 17,6 19,5 14,6 15 8 29 15 WNW 1018,1 68 0 0,0
15.06.2019 23:00:00 17,5 11,7 16,4 18,0 19,8 14,6 14 8 22 12 WNW 1017,2 69 0 0,0
15.06.2019 22:00:00 18,3 11,7 16,4 19,4 19,9 14,6 15 8 24 13 WNW 1016,3 70 10 0,0
15.06.2019 21:00:00 19,6 12,0 17,6 21,5 20,0 14,6 9 5 18 10 W 1015,8 70 60 0,0
15.06.2019 20:00:00 20,4 11,4 20,3 23,1 19,8 14,6 11 6 25 13 W 1015,5 70 54 0,0
15.06.2019 19:00:00 21,3 10,7 22,6 24,9 19,5 14,6 13 7 31 17 W 1015,1 56 54 0,0
15.06.2019 18:00:00 21,7 10,4 24,1 27,1 19,0 14,6 16 9 29 16 W 1015,1 53 60 0,0
15.06.2019 17:00:00 21,1 11,6 24,6 26,6 18,6 14,6 21 12 32 17 WSW 1015,6 44 46 0,0
15.06.2019 16:00:00 20,2 12,4 21,7 26,9 18,0 14,6 15 8 34 19 W 1015,7 70 35 0,0
15.06.2019 15:00:00 20,8 13,1 26,4 26,7 17,6 14,6 20 11 34 18 SW 1015,5 24 43 0,0
15.06.2019 14:00:00 19,5 13,4 22,5 24,1 17,2 14,6 18 10 32 17 WSW 1015,9 70 35 0,0
15.06.2019 13:00:00 17,1 14,1 17,7 20,6 16,9 14,6 17 9 37 20 WSW 1016,0 70 27 0,0
15.06.2019 12:00:00 17,5 15,1 21,5 19,1 16,8 14,6 19 10 37 20 WSW 1015,5 56 19 0,0
15.06.2019 11:00:00 15,9 14,7 17,2 17,7 16,7 14,6 23 12 33 18 W 1015,0 42 4 0,3
15.06.2019 10:00:00 15,2 14,3 15,2 16,5 16,7 14,6 18 10 30 16 WSW 1014,5 11 0 0,0
15.06.2019 09:00:00 15,5 14,2 16,1 16,5 16,7 14,6 21 11 32 17 WSW 1013,7 41 0 0,0
15.06.2019 08:00:00 15,3 14,4 15,2 15,9 16,8 14,6 25 13 36 20 WSW 1013,0 22 0 0,0
15.06.2019 07:00:00 15,0 14,2 14,1 15,3 16,9 14,6 8 5 25 14 W 1011,5 7 0 0,0
15.06.2019 06:00:00 14,8 14,4 14,4 15,0 17,1 14,6 18 10 31 17 W 1011,5 3,9 0 0,0
15.06.2019 05:00:00 13,5 13,4 13,3 14,6 17,3 14,6 19 10 27 15 W 1011,0 0,5 0 0,0
15.06.2019 04:00:00 13,3 12,8 12,7 14,6 17,6 14,6 10 6 16 8 W 1009,9 0,2 0 0,0
15.06.2019 03:00:00 14,1 13,2 13,0 15,3 17,8 14,6 6 3 21 12 WNW 1010,0 16 0 0,0
15.06.2019 02:00:00 14,5 13,5 13,3 15,3 18,1 14,6 12 7 20 11 NE 1010,3 31 0 0,0
15.06.2019 01:00:00 15,9 13,6 14,0 16,0 18,4 14,6 16 8 24 13 NNE 1010,7 61 0 0,0
15.06.2019 00:00:00 15,6 14,3 14,2 16,6 18,6 14,6 9 5 14 8 N 1012,4 39 0 0,1
14.06.2019 23:00:00 15,4 14,8 15,0 17,4 18,9 14,6 10 6 23 12 WNW 1013,6 9 0 0,4
14.06.2019 22:00:00 16,4 14,2 15,1 17,7 19,1 14,6 6 3 13 7 ENE 1012,5 56 0 0,0
14.06.2019 21:00:00 16,6 14,1 15,4 18,7 19,3 14,6 8 5 14 8 ENE 1012,4 53 0 0,0
14.06.2019 20:00:00 16,3 14,6 16,2 19,8 19,5 14,6 8 4 14 7 E 1012,9 47 0 0,3
14.06.2019 19:00:00 17,8 13,2 16,8 21,3 19,5 14,6 4 2 19 10 E 1013,7 28 0 0,2
14.06.2019 18:00:00 18,8 13,0 19,2 23,2 19,3 14,6 14 8 19 10 SE 1013,8 70 0 0,0
14.06.2019 17:00:00 19,7 12,0 21,2 24,7 19,1 14,6 13 7 23 12 ESE 1013,9 70 0 0,0
14.06.2019 16:00:00 20,3 10,8 22,2 25,9 18,7 14,6 16 9 22 12 SE 1014,5 68 2 0,0
14.06.2019 15:00:00 21,2 11,0 24,3 26,6 18,2 14,6 8 5 22 12 SSW 1015,0 70 31 0,0
14.06.2019 14:00:00 21,0 9,7 23,6 26,3 17,6 14,6 14 7 24 13 S 1015,3 54 45 0,0
14.06.2019 13:00:00 20,8 10,4 23,2 26,3 17,0 14,6 10 6 19 11 S 1015,6 67 54 0,0
14.06.2019 12:00:00 20,7 9,8 25,3 25,7 16,5 14,6 8 4 16 9 SE 1015,3 57 53 0,0
14.06.2019 11:00:00 20,3 12,0 23,6 21,1 16,2 14,6 5 3 8 5 SSW 1015,2 70 24 0,0
14.06.2019 10:00:00 17,7 9,7 18,8 18,6 16,0 14,6 8 4 11 6 SW 1016,0 70 4 0,0
14.06.2019 09:00:00 18,2 8,4 19,1 17,9 16,0 14,6 4 2 16 9 SSE 1014,9 70 46 0,0
14.06.2019 08:00:00 16,6 8,0 16,6 14,9 16,1 14,6 12 7 18 10 ENE 1014,2 70 48 0,0
14.06.2019 07:00:00 16,0 7,4 14,5 13,0 16,3 14,6 13 7 19 10 ENE 1014,0 10 60 0,0
14.06.2019 06:00:00 14,8 7,3 11,6 12,5 16,6 14,6 12 7 21 12 ENE 1014,0 64 5 0,0
14.06.2019 05:00:00 14,6 7,1 11,7 12,8 16,9 14,6 15 8 20 11 NE 1014,0 70 0 0,0
14.06.2019 04:00:00 15,2 6,8 12,8 13,5 17,2 14,6 15 8 21 11 ENE 1013,8 70 0 0,0
14.06.2019 03:00:00 15,8 6,9 13,2 13,6 17,5 14,6 16 8 22 12 ENE 1014,1 70 0 0,0
14.06.2019 02:00:00 16,0 7,1 13,0 14,0 17,9 14,6 14 8 22 12 ENE 1014,3 70 0 0,0
14.06.2019 01:00:00 16,3 6,9 13,2 14,8 18,3 14,6 15 8 18 10 ENE 1014,4 70 0 0,0
14.06.2019 00:00:00 16,5 7,2 13,2 15,5 18,6 14,6 14 8 18 10 ENE 1014,6 70 0 0,0
13.06.2019 23:00:00 17,1 8,1 14,0 16,7 18,9 14,6 9 5 14 7 ENE 1014,3 70 0 0,0
13.06.2019 22:00:00 16,3 9,3 13,7 18,1 19,2 14,6 9 5 16 8 ENE 1014,1 70 9 0,0
13.06.2019 21:00:00 16,9 9,0 15,0 19,7 19,2 14,6 8 5 13 7 NE 1013,8 70 60 0,0
13.06.2019 20:00:00 18,6 9,1 21,2 21,6 19,2 14,6 8 4 26 14 NNW 1013,6 70 44 0,0
13.06.2019 19:00:00 19,3 7,3 18,7 23,9 18,9 14,6 17 9 32 17 WSW 1013,4 70 51 0,0
13.06.2019 18:00:00 20,5 7,9 24,0 25,2 18,5 14,6 14 8 30 16 SW 1013,1 34 47 0,0
13.06.2019 17:00:00 19,3 7,5 21,0 25,6 18,0 14,7 17 9 34 19 SW 1013,6 70 37 0,0
13.06.2019 16:00:00 19,5 7,5 24,9 27,0 17,4 14,7 19 11 35 19 SW 1013,8 54 45 0,0
13.06.2019 15:00:00 18,8 7,7 24,1 26,7 16,7 14,7 19 10 42 23 SW 1013,9 58 52 0,0
13.06.2019 14:00:00 18,3 6,7 23,8 26,2 16,1 14,7 26 14 39 21 SW 1014,1 19 58 0,0
13.06.2019 13:00:00 17,0 7,1 22,4 22,7 15,7 14,7 20 11 35 19 SW 1014,6 63 43 0,0
13.06.2019 12:00:00 15,7 7,9 18,3 21,0 15,2 14,7 20 11 31 17 SW 1014,8 70 37 0,0

tt = Température de l'air
td = dewpoint
tt 5cm = Température de l'air 5cm
tt -5cm = Température de l'air -5cm
tt -20cm = Température de l'air -20cm
tt -100cm = Température de l'air -100cm
ff = Vitesse du vent
fx = gusts
dd = Direction du vent
ppp = reduced air pressure
vv = visibility
sd = Ensoleillement
rr = Quantités de précipitations

stations d'obs. à proximité